CAPE
0 0 0 0 0 0 0 0 0 0 0 0 0 0 0 0 0 0 0 0 0 0 0 0 8 54 8 0 0 0 9 0 0 0 0 0 0 0 62 102 98 111 122
0 0 0 0 0 0 0 0 0 0 0 0 0 0 0 0 0 0 0 0 0 0 0 0 17 20 114 82 73 4 0 0 0 0 0 0 0 0 0 55 83 70 58
0 0 0 0 0 0 0 0 0 0 0 0 0 0 0 0 0 0 0 0 0 0 0 0 6 38 148 241 204 178 22 0 0 0 0 0 0 0 0 8 67 65 29
0 0 0 0 0 0 0 0 0 0 0 0 0 0 0 0 0 0 0 0 0 0 0 0 7 56 92 135 187 232 238 35 0 0 0 1 0 0 0 0 8 64 32
0 0 0 0 0 0 0 0 0 0 0 0 0 0 0 0 0 0 0 0 0 0 0 0 0 0 7 38 50 103 259 235 77 17 1 3 9 0 0 0 0 13 55
0 0 0 0 0 0 0 0 0 0 0 0 0 0 0 0 0 0 0 0 0 0 1 0 0 0 0 1 30 39 155 378 234 79 44 18 10 8 0 0 0 0 0
0 0 0 0 0 0 0 0 0 0 0 0 0 0 0 0 0 0 0 0 0 0 0 0 5 14 0 0 2 46 81 107 386 223 97 50 35 22 5 0 0 0 0
0 0 0 0 0 0 0 0 0 0 0 0 0 0 0 0 0 0 0 0 0 0 0 0 0 0 1 12 0 0 5 0 10 331 259 110 70 23 6 4 0 0 0
0 0 0 0 0 0 0 0 0 0 0 0 0 0 0 0 0 0 0 0 0 0 0 0 0 0 0 0 0 0 0 0 4 139 267 292 251 140 48 22 22 0 21
0 0 0 0 0 0 0 0 0 0 0 0 0 0 0 0 0 0 0 0 0 0 0 0 0 0 0 0 0 0 0 0 0 0 6 95 209 256 246 139 74 47 142
0 0 0 0 0 0 0 0 0 0 0 0 0 0 0 0 0 0 0 0 0 0 0 0 0 0 0 0 0 0 0 0 0 0 1 1 4 43 174 245 295 224 236
0 0 0 0 0 0 0 0 0 0 0 0 0 0 0 0 0 0 0 0 0 0 0 0 0 0 0 0 0 0 0 0 0 0 0 4 0 1 4 22 140 224 313
0 0 0 0 0 0 0 0 0 0 0 0 0 0 0 0 0 0 0 0 0 0 0 0 0 0 0 0 0 0 0 0 0 0 0 0 0 0 0 0 3 11 57
0 0 0 0 0 0 0 0 0 0 0 0 0 0 0 0 0 0 0 0 0 0 0 0 0 0 0 0 0 0 0 0 0 0 0 0 0 0 0 0 0 0 1
0 0 0 0 0 0 0 0 0 0 0 0 0 0 0 0 0 0 0 0 0 0 0 0 0 0 0 0 0 0 0 0 0 0 0 0 0 0 0 0 0 0 0
0 0 0 0 0 0 0 0 0 0 0 0 0 0 0 0 0 0 0 0 0 0 0 0 0 0 0 0 0 0 0 0 0 0 0 0 0 0 0 0 0 0 0
0 0 0 0 0 0 0 0 0 0 0 0 0 0 0 0 0 0 0 0 0 0 0 0 0 0 0 0 0 0 0 0 0 0 0 0 0 0 0 0 0 0 0
0 0 0 0 0 0 0 0 0 0 0 0 0 0 0 0 0 0 0 0 0 0 0 0 0 0 0 0 0 0 0 0 0 0 0 0 0 0 0 0 0 0 0
0 0 0 0 0 0 0 0 0 0 0 0 0 0 0 0 0 0 0 0 0 0 0 0 0 0 0 0 0 0 0 0 0 0 0 0 0 0 0 0 0 0 0
0 0 0 0 0 0 0 0 0 0 0 0 0 0 0 0 0 0 0 0 0 0 0 0 0 0 0 0 0 0 0 0 0 0 0 0 0 0 0 0 0 0 0
0 0 0 0 0 0 0 0 0 0 0 0 0 0 0 0 0 0 0 0 0 0 0 0 0 0 0 0 0 0 0 0 0 0 0 0 0 0 0 0 0 0 0
0 0 0 0 0 0 0 0 0 0 0 0 0 0 0 0 0 0 2 4 1 0 2 2 3 2 2 3 3 2 4 3 0 0 0 0 0 0 0 0 0 0 0
0 0 0 0 0 0 0 0 0 0 0 0 0 0 0 0 0 0 0 1 4 4 6 2 3 4 3 2 5 9 9 10 3 4 3 0 0 0 0 0 0 0 0
0 0 0 0 0 0 0 0 0 0 0 0 0 0 0 0 0 0 0 0 0 0 0 2 4 6 6 6 6 13 17 18 13 12 12 4 0 0 0 0 0 6 10
0 0 0 0 0 0 0 0 0 0 0 0 0 0 0 0 1 6 3 0 0 0 4 7 5 6 9 10 9 4 7 10 9 6 5 4 0 0 0 0 0 1 1
0 0 0 0 0 0 0 0 0 0 0 0 1 0 0 2 7 8 11 19 9 0 0 1 4 0 0 0 1 0 0 4 6 7 0 3 8 10 6 0 0 0 0
CIN
0 0 0 0 0 0 0 0 0 0 0 0 0 0 0 0 0 0 0 0 0 0 0 0 -1 -4 -10 0 0 0 -13 0 0 0 0 0 0 0 -5 0 0 0 0
0 0 0 0 0 0 0 0 0 0 0 0 0 0 0 0 0 0 0 0 0 0 0 0 -35 -35 -1 -6 -13 -3 0 0 0 0 0 0 0 0 0 -4 -1 0 0
0 0 0 0 0 0 0 0 0 0 0 0 0 0 0 0 0 0 0 0 0 0 0 0 -92 -37 -11 0 0 -3 -14 0 0 0 0 0 0 0 0 -4 -5 -1 -1
0 0 0 0 0 0 0 0 0 0 0 0 0 0 0 0 0 0 0 0 0 -2 0 0 -103 -63 -34 -24 -2 0 -4 -72 0 0 0 -1 0 0 0 0 -10 -12 -6
0 0 0 0 0 0 0 0 0 0 0 0 0 0 0 0 0 0 0 0 0 0 0 0 0 0 -95 -91 -83 -36 -1 -6 -65 -116 -15 -99 -169 0 0 0 0 -7 -21
0 0 0 0 0 0 0 0 0 0 0 0 0 0 0 0 0 0 0 0 0 0 -4 -9 0 0 0 -61 -143 -101 -22 -2 -6 -67 -119 -174 -187 -218 0 0 0 0 0
0 0 0 0 0 0 0 0 0 0 0 0 0 0 0 0 0 0 0 0 0 0 0 0 -38 -204 0 0 -46 -122 -84 -46 -2 -17 -62 -118 -163 -161 -212 0 0 0 0
0 0 0 0 0 0 0 0 0 0 0 0 0 0 0 0 0 0 0 0 0 0 0 0 0 0 -25 -150 0 0 -144 0 -11 0 -14 -56 -87 -122 -183 -187 -40 0 0
0 0 0 0 0 0 0 0 0 0 0 0 0 0 0 0 0 0 0 0 0 0 0 0 0 0 0 0 0 0 0 0 -11 -26 -4 -17 -22 -57 -109 -133 -156 0 -68
0 0 0 0 0 0 0 0 0 0 0 0 0 0 0 0 0 0 0 0 0 0 0 0 0 0 0 0 0 0 0 0 0 0 -13 -61 -23 -9 -28 -46 -78 -99 -38
0 0 0 0 0 0 0 0 0 0 0 0 0 0 0 0 0 0 0 0 0 0 0 0 0 0 0 0 0 0 0 0 0 0 0 0 0 -92 -32 -29 -20 -28 -21
0 0 0 0 0 0 0 0 0 0 0 0 0 0 0 0 0 0 0 0 0 0 0 0 0 0 0 0 0 0 0 0 0 0 0 0 0 0 0 -85 -39 -25 -16
0 0 0 0 0 0 0 0 0 0 0 0 0 0 0 0 0 0 0 0 0 0 0 0 0 0 0 0 0 0 0 0 0 0 0 0 0 0 0 0 0 -6 -31
0 0 0 0 0 0 0 0 0 0 0 0 0 0 0 0 0 0 0 0 0 0 0 0 0 0 0 0 0 0 0 0 0 0 0 0 0 0 0 0 0 0 0
0 0 0 0 0 0 0 0 0 0 0 0 0 0 0 0 0 0 0 0 0 0 0 0 0 0 0 0 0 0 0 0 0 0 0 0 0 0 0 0 0 0 0
0 0 0 0 0 0 0 0 0 0 0 0 0 0 0 0 0 0 0 0 0 0 0 0 0 0 0 0 0 0 0 0 0 0 0 0 0 0 0 0 0 0 0
0 0 0 0 0 0 0 0 0 0 0 0 0 0 0 0 0 0 0 0 0 0 0 0 0 0 0 0 0 0 0 0 0 0 0 0 0 0 0 0 0 0 0
0 0 0 0 0 0 0 0 0 0 0 0 0 0 0 0 0 0 0 0 0 0 0 0 0 0 0 0 0 0 0 0 0 0 0 0 0 0 0 0 0 0 0
0 0 0 0 0 0 0 0 0 0 0 0 0 0 0 0 0 0 0 0 0 0 0 0 0 0 0 0 0 0 0 0 0 0 0 0 0 0 0 0 0 0 0
0 0 0 0 0 0 0 0 0 0 0 0 0 0 0 0 0 0 0 0 0 0 0 0 0 0 0 0 0 0 0 0 0 0 0 0 0 0 0 0 0 0 0
0 0 0 0 0 0 0 0 0 0 0 0 0 0 0 0 0 0 0 0 0 0 0 0 0 0 -1 0 0 0 0 0 0 0 0 0 0 0 0 0 0 0 0
0 0 0 0 0 0 0 0 0 0 0 0 0 0 0 0 0 0 0 0 -1 0 -2 -1 -1 -1 0 0 0 0 0 0 0 0 0 0 0 0 0 0 0 0 0
0 0 0 0 0 0 0 0 0 0 0 0 0 0 0 0 0 0 0 0 0 0 -1 -3 -1 0 0 0 0 0 0 0 0 0 0 0 0 0 0 0 0 0 0
0 0 0 0 0 0 0 0 0 0 0 0 0 0 0 0 0 0 0 0 0 0 0 0 0 0 0 -1 0 0 0 0 0 0 0 0 0 0 0 0 0 0 0
0 0 0 0 0 0 0 0 0 0 0 0 0 0 0 0 0 0 -4 0 0 0 0 0 0 0 0 0 0 0 0 0 0 0 0 0 0 0 0 0 0 0 0
0 0 0 0 0 0 0 0 0 0 0 0 -2 0 0 -3 0 0 -1 0 0 0 0 0 0 0 0 0 0 0 0 0 0 0 0 -1 0 0 0 0 0 0 0
Wind_Speed
3 4 4 4 4 4 4 6 7 6 5 5 5 4 2 1 4 3 2 7 8 5 3 2 2 3 3 4 4 3 3 5 6 7 8 9 10 12 13 10 11 11 12
3 3 3 4 3 4 3 3 5 5 5 5 6 5 3 3 1 3 2 3 7 8 6 3 0 0 1 2 4 3 1 2 3 5 6 7 7 10 12 12 9 9 10
4 4 2 4 4 4 4 3 3 4 4 3 5 5 4 6 4 3 3 3 4 6 8 7 5 3 1 4 4 5 5 2 1 2 3 5 5 6 8 11 9 7 8
7 4 4 4 3 3 4 4 3 4 4 4 4 4 4 4 6 5 4 4 4 2 4 8 7 6 5 3 4 4 7 6 4 1 1 1 3 4 5 7 9 8 8
6 5 3 3 4 3 4 4 3 3 3 4 4 4 5 4 5 5 5 4 4 4 1 5 6 7 7 7 5 5 3 8 7 5 3 2 1 0 2 3 4 6 9
5 4 4 4 4 4 4 4 3 2 1 3 4 5 5 5 4 4 5 4 4 5 3 4 3 4 8 9 9 7 6 5 9 8 6 4 4 3 2 2 1 2 4
5 5 4 4 4 4 4 4 3 3 4 4 3 3 3 5 4 4 4 4 6 5 2 3 2 3 3 9 9 9 8 7 7 10 8 7 6 6 5 4 3 3 2
6 6 5 4 5 4 5 5 4 3 2 4 2 1 3 4 2 3 3 3 5 3 3 5 6 6 4 3 2 5 7 7 8 9 10 9 9 9 8 7 6 6 4
5 5 5 4 4 4 3 3 5 6 3 3 5 2 2 1 3 3 1 4 5 4 4 4 6 7 7 5 5 6 6 4 6 9 10 10 12 11 11 10 9 9 8
5 5 5 5 5 4 5 4 3 3 4 4 3 4 2 1 2 4 4 4 5 6 6 5 6 5 5 5 8 12 9 8 7 7 9 10 11 13 14 13 13 13 10
5 5 5 5 5 4 4 5 5 5 3 3 3 3 2 1 1 2 3 4 5 4 4 4 5 5 6 4 5 6 12 13 12 10 9 9 11 14 14 14 16 15 13
3 4 4 4 4 4 4 4 5 5 4 4 3 3 2 2 2 3 2 3 2 4 3 3 4 3 4 4 8 11 11 15 14 14 13 12 12 13 12 13 14 14 15
3 4 4 4 4 4 4 4 4 4 3 3 4 2 3 2 2 2 2 2 2 3 4 3 2 1 5 4 6 12 13 16 15 16 15 15 15 12 11 12 13 15 14
3 3 3 3 4 4 4 4 2 2 1 3 3 2 2 3 3 2 2 2 3 3 2 5 2 5 5 6 8 12 6 13 15 18 19 17 16 15 14 14 13 14 14
2 4 3 3 3 3 3 4 3 2 3 3 3 3 1 2 2 2 2 1 1 2 3 4 0 5 6 5 6 6 5 9 17 18 18 17 15 16 16 16 17 16 15
2 2 2 2 2 2 3 3 3 3 3 3 3 2 2 1 2 2 1 2 1 2 3 3 3 7 8 8 7 6 7 11 13 18 19 17 16 16 16 16 17 17 17
2 1 1 2 2 2 2 2 3 3 3 3 4 3 4 3 2 3 3 2 2 3 5 5 3 6 7 8 10 7 7 9 9 17 21 20 18 18 18 18 18 18 19
1 1 2 2 2 2 2 2 3 4 4 4 5 4 5 4 3 4 3 4 3 4 4 10 7 6 5 5 7 10 9 9 9 15 22 21 22 22 22 21 20 20 20
2 2 2 3 3 2 3 3 3 3 4 4 5 5 5 4 4 3 5 4 3 5 4 5 8 4 4 5 9 10 10 9 9 16 20 19 19 19 19 20 20 19 18
2 3 3 2 2 3 3 3 4 4 4 4 4 5 5 5 4 4 5 4 4 3 3 4 5 7 6 6 6 8 9 7 9 10 13 17 21 22 24 24 24 22 21
3 3 2 3 3 3 4 1 4 5 5 5 5 5 6 7 11 10 5 3 4 4 5 6 7 7 7 7 8 8 11 10 10 10 10 8 8 8 9 14 16 18 20
4 3 3 3 3 3 6 5 5 4 6 6 6 6 5 9 9 13 14 15 11 7 8 7 8 9 11 10 9 9 11 11 13 3 8 12 10 11 11 11 21 24 25
4 5 5 4 4 4 7 6 8 4 5 5 6 6 6 6 7 4 9 14 12 15 15 10 10 10 12 12 12 13 12 12 15 10 14 19 10 15 11 13 24 26 26
6 6 6 6 5 5 9 7 8 4 5 6 7 6 5 5 5 8 6 4 4 6 8 8 10 11 12 11 12 12 13 14 13 11 11 19 9 15 13 13 28 28 28
5 6 4 6 6 5 9 8 6 3 5 6 6 5 5 5 10 14 6 4 7 8 11 16 17 19 21 23 20 11 10 11 13 11 9 13 8 14 15 15 14 29 29
6 6 5 6 11 6 10 9 7 2 3 4 4 4 11 10 14 13 6 6 7 5 6 8 7 9 12 11 18 10 8 10 11 10 3 7 10 12 11 6 8 7 8
Wind_Direction
48 42 14 33 36 16 10 349 353 354 350 352 335 7 18 67 356 349 138 151 140 144 119 78 119 130 127 131 117 87 48 49 51 50 52 68 75 68 54 64 65 62 57
48 44 41 8 39 43 342 4 332 335 340 349 347 344 348 352 278 285 326 177 168 165 184 184 190 219 198 191 179 168 127 43 64 51 50 50 60 82 80 66 77 71 67
26 58 62 44 14 16 354 16 342 310 291 346 333 334 352 338 319 322 293 303 180 187 192 205 209 237 312 258 239 208 191 175 50 53 50 56 49 42 80 84 96 89 83
14 34 47 42 348 7 24 20 31 343 346 3 339 335 336 331 320 310 290 299 318 205 209 211 217 228 242 260 276 281 205 195 196 187 115 40 48 44 44 77 92 126 116
12 40 36 24 2 20 34 14 5 14 356 350 328 325 309 301 299 308 306 282 268 274 195 198 219 225 243 260 269 284 250 202 206 210 205 226 239 339 6 52 68 108 144
26 37 30 30 12 43 43 13 19 340 27 338 317 300 284 274 278 279 295 305 286 279 268 197 189 243 233 236 244 261 276 248 208 214 218 222 231 235 238 324 5 50 155
21 30 40 23 4 54 50 22 343 12 15 342 302 327 273 232 249 268 281 284 297 291 273 315 245 203 227 226 232 235 255 275 259 217 222 224 233 243 243 238 266 287 268
21 52 20 26 24 29 33 36 21 346 32 25 29 305 349 359 336 239 251 257 260 286 12 36 44 30 20 45 32 252 246 263 281 263 223 228 232 239 245 248 249 238 245
46 34 31 25 28 37 45 45 29 26 14 14 30 97 23 78 331 328 358 43 32 36 33 11 40 29 23 23 44 48 21 17 339 301 283 251 237 238 244 249 251 250 238
55 36 40 32 31 26 35 19 22 19 26 22 357 16 41 98 51 352 341 31 15 24 17 14 21 3 9 12 12 32 22 15 355 326 314 310 297 264 245 244 248 249 243
65 44 32 35 35 33 32 39 21 19 13 44 29 353 348 322 351 117 300 336 0 2 1 6 347 331 332 2 15 27 22 26 9 344 328 319 301 300 294 265 249 248 244
100 59 45 40 45 37 30 24 4 37 24 16 15 10 40 14 8 11 0 346 304 296 320 333 336 323 322 24 41 24 53 38 23 9 5 352 1 358 344 325 304 277 254
71 55 45 36 43 22 20 18 12 14 23 25 5 6 1 360 20 6 12 302 333 317 325 303 279 359 44 63 42 36 8 2 359 347 342 335 329 329 331 328 317 308 306
84 59 42 34 42 28 16 14 356 351 29 358 358 1 7 343 0 28 1 33 326 300 283 249 305 45 24 27 23 12 2 345 339 330 322 317 313 312 314 315 312 309 303
124 68 40 31 34 18 13 0 340 348 16 349 329 356 8 324 347 346 342 329 175 308 317 308 345 34 6 360 356 344 335 319 319 315 311 312 309 304 304 300 299 297 299
69 36 41 29 16 14 4 354 335 355 18 336 303 340 331 304 303 282 278 289 284 228 263 311 344 340 340 338 331 342 318 315 305 307 305 304 304 303 299 296 294 294 292
92 10 23 357 352 358 338 344 337 292 273 289 308 293 278 277 283 297 289 245 260 251 265 284 297 326 326 327 316 312 313 310 302 304 304 301 300 297 294 291 288 285 285
156 285 322 321 312 328 331 325 315 335 331 318 310 313 297 291 275 252 260 258 251 259 268 282 290 296 293 304 307 304 304 297 293 293 293 294 294 290 285 281 278 274 271
211 270 266 280 310 331 325 323 313 313 311 299 296 296 290 299 292 301 280 273 275 285 280 285 293 296 302 318 311 298 291 290 283 285 286 286 289 296 298 293 288 283 272
184 237 261 265 297 302 317 301 284 279 285 287 279 270 268 270 282 282 284 284 277 280 292 298 304 301 291 289 276 293 298 301 308 306 299 292 289 288 285 284 283 280 274
201 212 263 270 278 280 263 190 353 326 309 292 278 273 269 254 259 266 274 276 292 295 292 288 286 289 297 300 296 303 295 305 301 301 289 286 286 290 291 283 273 272 273
201 193 232 237 255 260 266 283 289 276 286 295 292 283 276 290 282 279 279 280 269 257 264 274 282 282 289 292 295 298 298 302 311 269 319 296 298 288 286 280 281 279 283
180 199 216 217 234 253 261 270 282 288 288 290 290 286 286 290 313 310 297 291 300 296 292 295 291 289 292 291 293 291 287 284 286 295 298 289 296 284 285 278 278 276 274
199 196 206 212 211 231 243 256 275 286 284 275 273 273 269 283 286 291 280 269 294 286 279 280 277 281 279 281 282 284 286 283 282 282 277 282 292 281 283 279 279 276 273
200 202 195 203 200 228 244 254 269 255 276 285 294 296 290 272 280 286 299 323 285 276 285 289 296 301 299 295 293 295 288 291 292 291 281 284 283 290 285 281 274 268 265
199 189 206 196 213 214 243 256 267 210 248 273 285 302 307 306 305 308 321 293 289 299 299 293 298 305 301 290 295 288 290 285 290 298 267 267 298 309 294 250 258 260 266